Probability
0 0 0 0 0 0 0 0 0 0 0 0 0 0 0 0 0 0 0 0 0 0 0 0 0 0 0 0 0 0 1 2 3 3 3 3 3 4 4 4 4 4 4 3
0 0 0 0 0 0 0 0 0 0 0 0 0 0 0 0 0 0 0 0 0 0 0 0 0 0 0 0 0 0 1 2 3 3 3 3 3 3 4 3 3 4 3 3
0 0 0 0 0 0 0 0 0 0 0 0 0 0 0 0 0 0 0 0 0 0 0 0 0 0 0 0 0 0 0 1 3 3 3 3 3 3 3 3 3 3 3 3
0 0 0 0 0 0 0 0 0 0 0 0 0 0 0 0 0 0 0 0 0 0 0 0 0 0 0 0 0 0 0 1 2 3 3 3 3 3 3 3 3 3 3 3
0 0 0 0 0 0 0 0 0 0 0 0 0 0 0 0 0 0 0 0 0 0 0 0 0 0 0 0 0 0 0 0 1 3 3 3 3 3 3 3 3 3 3 3
0 0 0 0 0 0 0 0 0 0 0 0 0 0 0 0 0 0 0 0 0 0 0 0 0 0 0 0 0 0 0 0 1 2 3 3 3 3 3 3 3 3 3 3
0 0 0 0 0 0 0 0 0 0 0 0 0 0 0 0 0 0 0 0 0 0 0 0 0 0 0 0 0 0 0 0 1 2 3 3 3 3 2 3 3 3 3 3
0 0 0 0 0 0 0 0 0 0 0 0 0 0 0 0 0 0 0 0 0 0 0 0 0 0 0 0 0 0 0 0 0 1 2 3 2 1 1 1 2 3 3 3
0 0 0 0 0 0 0 0 0 0 0 0 0 0 0 0 0 0 0 0 0 0 0 0 0 0 0 0 0 0 0 0 0 0 1 2 1 0 0 0 1 2 2 2
0 0 0 0 0 0 0 0 0 0 0 0 0 0 0 0 0 0 0 0 0 0 0 0 0 0 0 0 0 0 0 0 0 0 0 0 0 0 0 0 0 1 1 1
0 0 0 0 0 0 0 0 0 0 0 0 0 0 0 0 0 0 0 0 0 0 0 0 0 0 0 0 0 0 0 0 0 0 0 0 0 0 0 0 0 0 0 0
0 0 0 0 0 0 0 0 0 0 0 0 0 0 0 0 0 0 0 0 0 0 0 0 0 0 0 0 0 0 0 0 0 0 0 0 0 0 0 0 0 0 0 0
0 0 0 0 0 0 0 0 0 0 0 0 0 0 0 0 0 0 0 0 0 0 0 0 0 0 0 0 0 0 0 0 0 0 0 0 0 0 0 0 0 0 0 0
0 0 0 0 0 0 0 0 0 0 0 0 0 0 0 0 0 0 0 0 0 0 0 0 0 0 0 0 0 0 0 0 0 0 0 0 0 0 0 0 0 0 0 0
0 0 0 0 0 0 0 0 0 0 0 0 0 0 0 0 0 0 0 0 0 0 0 0 0 0 0 0 0 0 0 0 0 0 0 0 0 0 0 0 0 0 0 0
0 0 0 0 0 0 0 0 0 0 0 0 0 0 0 0 0 0 0 0 0 0 0 0 0 0 0 0 0 0 0 0 0 0 0 0 0 0 0 0 0 0 0 0
0 0 0 0 0 0 0 0 0 0 0 0 0 0 0 0 0 0 0 0 0 0 0 0 0 0 0 0 0 0 0 0 0 0 0 0 0 0 0 0 0 0 0 0
0 0 0 0 0 0 0 0 0 0 0 0 0 0 0 0 0 0 0 0 0 0 0 0 0 0 0 0 0 0 0 0 0 0 0 0 0 0 0 0 0 0 0 0
0 0 0 0 0 0 0 0 0 0 0 0 0 0 0 0 0 0 0 0 0 0 0 0 0 0 0 0 0 0 0 0 0 0 0 0 0 0 0 0 0 0 0 0
0 0 0 0 0 0 0 0 0 0 0 0 0 0 0 0 0 0 0 0 0 0 0 0 0 0 0 0 0 0 0 0 0 0 0 0 0 0 0 0 0 0 0 0
0 0 0 0 0 0 0 0 0 0 0 0 0 0 0 0 0 0 0 0 0 0 0 0 0 0 0 0 0 0 0 0 0 0 0 0 0 0 0 0 0 0 0 0
0 0 0 0 0 0 0 0 0 0 0 0 0 0 0 0 0 0 0 0 0 0 0 0 0 0 0 0 0 0 0 0 0 0 0 0 0 0 0 0 0 0 0 0
0 0 0 0 0 0 0 0 0 0 0 0 0 0 0 0 0 0 0 0 0 0 0 0 0 0 0 0 0 0 0 0 0 0 0 0 0 0 0 0 0 0 0 0
0 0 0 0 0 0 0 0 0 0 0 0 0 0 0 0 0 0 0 0 0 0 0 0 0 0 0 0 0 0 0 0 0 0 0 0 0 0 0 0 0 0 0 0
0 0 0 0 0 0 0 0 0 0 0 0 0 0 0 0 0 0 0 0 0 0 0 0 0 0 0 0 0 0 0 0 0 0 0 0 0 0 0 0 0 0 0 0
0 0 0 0 0 0 0 0 0 0 0 0 0 0 0 0 0 0 0 0 0 0 0 0 0 0 0 0 0 0 0 0 0 0 0 0 0 0 0 0 0 0 0 0
Wind_Speed
1 3 3 7 7 4 4 3 4 5 2 3 6 9 9 5 5 6 6 5 5 5 3 2 2 2 2 2 3 3 3 3 3 2 2 1 1 1 0 1 1 1 2 2
2 3 6 3 3 3 3 3 4 4 1 2 4 9 8 6 7 7 7 7 5 3 1 2 2 2 2 3 2 3 3 4 3 3 2 2 1 1 0 0 0 1 2 2
5 3 2 3 2 3 4 5 5 4 3 2 2 7 5 4 3 4 5 5 5 5 5 4 3 3 2 2 3 2 3 3 3 3 2 2 1 1 0 0 0 1 2 2
2 3 1 2 3 4 6 4 3 2 1 3 1 5 7 4 3 4 5 4 4 4 5 4 3 3 3 3 2 2 2 2 3 3 4 4 3 2 2 1 1 1 0 2
3 1 1 3 4 4 4 1 2 2 2 2 2 3 8 2 5 7 6 5 5 4 5 5 4 4 2 1 1 1 1 1 2 3 4 4 3 2 1 1 1 1 1 1
2 2 2 3 1 3 2 2 2 2 2 4 5 5 8 5 7 5 4 4 4 4 3 3 2 2 1 1 1 1 1 0 1 3 3 3 4 3 2 2 2 1 1 1
3 2 1 1 1 0 2 4 2 3 1 7 3 4 10 6 4 5 5 5 4 4 4 3 3 2 2 2 1 1 1 0 1 2 3 3 4 4 4 4 3 2 1 1
2 4 2 1 3 4 4 5 6 5 5 5 2 7 8 3 2 2 3 4 3 3 3 4 4 4 3 3 2 2 1 1 0 1 2 2 3 2 2 3 3 3 3 3
4 4 2 1 1 3 4 3 3 3 0 2 6 6 7 1 0 0 1 2 3 3 3 3 3 3 3 3 3 3 2 1 0 1 1 1 2 2 2 2 2 2 2 2
4 3 3 2 1 1 2 4 3 3 3 4 5 5 5 4 4 2 2 2 3 2 2 2 2 2 2 2 1 1 1 1 1 0 0 0 1 2 2 2 2 2 2 2
2 2 2 1 3 4 2 2 3 3 3 4 4 7 4 4 4 5 5 4 4 4 3 3 2 1 1 1 1 1 1 1 0 0 0 0 1 1 1 2 2 2 2 2
1 3 3 5 2 1 2 4 5 4 5 4 4 8 2 2 3 4 3 3 3 3 3 3 2 2 2 2 1 1 1 0 0 0 0 0 0 0 1 1 2 2 2 2
2 3 1 3 2 1 2 2 3 3 2 4 5 8 2 1 1 2 3 3 2 2 2 2 2 1 1 1 1 1 0 0 0 1 0 0 0 0 1 1 1 1 2 2
2 2 5 7 5 3 4 5 4 4 4 6 9 9 6 4 3 3 2 3 2 2 2 2 2 2 2 1 1 1 0 0 0 1 0 1 1 1 1 1 1 1 1 2
3 2 4 6 4 3 6 7 7 8 8 9 9 9 10 7 5 4 3 2 2 2 2 3 3 2 2 1 1 1 1 0 0 0 0 1 1 1 1 1 1 1 1 1
2 2 1 5 5 5 8 10 10 10 8 9 9 12 8 4 1 2 3 3 3 3 3 3 2 2 2 2 2 2 1 1 1 0 1 1 1 1 1 2 2 1 1 2
2 3 1 5 4 4 10 11 11 8 8 8 11 11 3 2 4 5 5 4 4 4 3 3 3 3 3 3 2 3 2 1 1 0 1 1 1 1 2 2 2 2 2 2
5 4 2 2 1 8 10 4 7 9 8 9 7 5 5 6 4 2 2 4 4 3 3 2 2 2 2 1 1 1 1 1 1 0 1 1 1 2 2 2 2 2 2 2
5 5 3 2 4 10 10 4 6 7 8 8 9 7 4 1 1 2 1 2 3 3 2 2 1 1 1 0 1 1 1 1 0 1 1 2 1 1 2 2 3 3 2 2
2 3 4 4 4 9 8 2 3 3 6 4 6 8 5 3 2 5 2 1 1 1 0 0 0 0 0 0 1 2 1 0 1 2 2 2 1 1 2 3 3 3 2 3
3 3 5 6 7 11 6 1 3 4 7 2 4 5 5 5 6 2 1 1 1 0 0 1 1 1 1 1 1 1 1 1 2 1 1 1 2 2 2 2 2 2 2 2
10 8 8 6 7 12 3 4 6 6 1 0 1 2 3 4 2 1 1 1 1 1 1 1 1 1 1 1 1 0 1 2 1 1 1 2 2 2 2 2 2 2 2 2
10 10 8 11 10 3 4 5 4 1 2 2 2 2 3 3 3 2 2 1 1 1 1 1 1 0 1 1 1 1 2 1 1 1 1 2 2 2 2 2 2 2 2 2
6 3 4 6 8 6 4 3 2 2 2 2 2 2 3 4 3 3 2 2 1 1 1 1 1 0 1 1 1 1 1 1 0 1 2 2 2 2 2 2 2 2 2 2
7 6 5 7 6 3 4 5 5 3 2 2 2 2 3 4 3 3 2 2 2 1 1 1 1 2 2 1 2 2 1 0 1 2 2 2 2 2 2 2 2 3 3 3
7 9 9 9 6 6 5 4 4 3 3 3 3 2 1 2 3 2 2 1 1 1 1 1 1 2 2 2 2 2 1 1 1 2 2 2 2 2 2 3 3 5 5 6
Wind_Direction
109 91 199 214 207 197 171 186 236 253 244 205 235 254 260 249 222 222 226 222 218 223 229 198 181 174 161 163 164 176 179 175 157 155 165 170 191 203 204 195 186 165 152 149
75 243 236 210 189 194 193 214 250 281 280 222 256 267 263 240 221 214 215 215 216 210 192 192 180 168 169 171 174 177 181 180 175 174 177 178 176 186 215 295 226 183 165 161
186 238 210 171 170 196 224 218 228 246 322 317 309 295 272 254 228 223 212 213 208 196 199 201 192 191 181 188 187 188 191 183 181 164 133 110 84 64 48 267 271 294 185 165
240 271 183 170 204 191 238 227 222 222 215 271 183 276 277 251 258 238 230 225 217 211 199 194 189 193 201 210 198 187 181 177 174 161 157 158 170 194 215 210 223 267 224 176
239 243 205 211 221 194 221 192 205 216 210 270 237 230 277 256 246 243 230 222 218 208 193 188 190 193 190 173 165 182 167 167 172 167 166 170 178 196 191 178 199 224 257 207
246 255 216 222 234 194 146 70 35 40 90 253 222 200 268 229 224 233 222 215 209 201 193 187 174 144 132 114 112 127 134 171 185 173 171 175 182 182 176 193 205 216 242 244
292 288 301 115 111 73 113 110 43 354 320 247 219 213 250 243 226 208 207 210 206 189 175 170 165 164 163 155 147 136 150 222 247 188 186 189 191 189 196 200 201 203 216 231
209 268 251 239 188 190 192 163 168 197 225 269 253 231 250 255 255 216 194 190 179 175 179 182 186 182 179 177 171 162 174 198 255 225 216 200 190 192 209 211 205 206 212 223
190 246 301 264 242 157 165 201 189 149 90 263 259 274 293 245 302 191 154 150 176 187 189 188 187 183 179 182 183 176 174 173 224 250 243 218 199 195 210 226 212 209 213 213
163 235 286 304 42 350 171 157 122 147 176 243 271 258 247 238 234 225 205 206 216 201 194 190 184 183 176 176 164 140 154 179 218 238 248 252 230 208 205 201 219 210 212 210
126 169 294 323 207 211 167 169 168 165 184 189 251 264 240 218 204 199 212 211 208 201 199 196 191 183 154 129 131 141 137 117 80 288 294 298 293 241 197 199 219 217 214 207
155 141 242 253 258 273 204 195 170 179 227 217 230 264 277 216 196 186 202 209 204 197 188 181 173 153 136 138 146 157 150 124 292 300 317 254 276 276 206 220 226 216 218 217
147 132 50 328 316 318 255 232 199 173 166 199 213 259 312 4 174 196 197 206 199 183 175 164 160 174 176 178 183 181 162 158 359 13 5 347 335 308 260 253 245 231 226 233
94 165 195 216 235 207 234 235 202 176 204 227 231 253 277 268 248 239 217 203 193 188 179 178 194 213 207 202 199 196 215 104 66 34 1 311 306 297 281 279 267 246 236 231
106 218 244 264 272 249 248 242 217 214 216 222 245 247 257 252 240 233 210 191 181 186 190 195 206 221 224 227 232 209 211 148 101 80 329 298 312 322 316 302 290 273 261 246
103 199 276 287 287 271 270 254 232 233 233 240 259 264 261 261 218 212 211 204 204 209 209 205 211 219 230 231 229 224 224 203 138 181 283 309 324 337 326 314 307 302 286 267
173 151 191 272 301 327 269 235 214 217 216 206 229 244 245 237 209 211 212 209 214 217 214 214 225 237 246 243 222 217 219 178 163 211 304 318 326 332 324 320 316 294 285 275
175 165 178 243 6 244 247 214 202 217 231 222 233 248 227 227 227 220 207 201 221 228 229 233 236 251 263 265 223 201 158 157 167 201 280 308 314 314 323 321 306 298 293 284
193 171 162 173 235 272 283 245 187 202 247 224 226 237 242 224 29 297 233 199 215 226 228 237 239 245 250 206 157 139 140 142 150 260 277 290 292 302 317 309 302 303 304 294
173 156 158 181 218 246 255 234 187 142 265 230 204 219 222 157 215 255 236 177 208 221 214 287 23 47 41 343 111 130 158 161 255 271 278 292 297 287 289 294 303 308 300 289
162 179 196 207 233 260 259 242 123 182 250 231 191 203 199 196 217 228 118 112 122 100 72 84 90 63 347 30 106 152 169 248 272 295 311 312 305 291 286 294 306 311 305 304
181 181 197 182 213 249 212 140 185 225 273 160 187 200 202 214 217 187 160 161 121 73 76 89 92 26 14 53 97 138 265 292 314 320 307 308 309 302 305 301 307 308 302 300
202 195 190 197 215 233 174 194 219 226 223 247 233 229 200 206 217 213 219 219 200 176 146 113 123 28 8 27 97 228 290 326 337 318 294 303 309 308 304 294 297 308 303 291
235 205 203 238 249 236 227 241 258 231 232 260 253 230 200 204 206 204 207 214 207 197 178 129 123 244 301 321 311 266 300 327 277 275 285 290 295 303 304 292 283 283 281 279
213 182 207 242 256 261 244 228 233 240 249 272 276 238 212 200 210 208 212 215 214 216 210 172 201 240 267 292 294 300 308 306 254 264 280 291 287 284 289 284 267 263 255 254
195 190 196 227 213 202 220 204 202 214 238 246 249 257 244 208 213 205 212 213 204 214 204 202 234 251 267 277 281 292 297 253 236 264 276 281 285 286 285 291 300 290 283 287